[[{"header":{"parameterUnit":"m.s-1","parameterCategory":1,"la1":30.2991,"la2":30.254,"lo1":-89.0895,"lo2":-89.0444,"dy":0.0017,"dx":0.0017,"nx":28,"ny":28,"refTime":"2024-04-14T03:00:00:Z","depth":0,"parameterNumber":2,"parameterNumberName":"U-component_of_WINDS"},"data":[0,0,0,0,0,0,0,0,0,0,0,0,0,0,0,0,0,0,0,0,0,0,0,0,0,0,0,0,0,0,0,0,0,0,0,0,0,0,0,0,0,0,0,0,0,0,0,0,0,0,0,0,0,0,0,0,0,0,-1.0567,-1.0567,0,-1.0574,-1.0574,-1.0574,-1.0568,-1.0568,-1.0568,-1.0567,-1.0575,-1.0576,-1.0576,0,0,0,0,0,0,0,0,0,0,0,0,0,-1.0552,-1.0552,-1.0567,-1.0567,-1.0567,-1.0574,-1.0574,-1.0574,-1.0568,-1.0568,-1.0568,-1.0567,-1.0575,-1.0576,-1.0576,0,0,0,0,0,0,0,0,0,0,0,0,0,-1.0559,-1.0552,-1.0567,-1.0565,-1.0565,-1.0574,-1.0574,-1.0574,-1.0568,-1.0568,-1.0568,-1.0567,-1.0575,-1.0576,-1.0576,-1.0588,0,0,-1.0578,-1.0579,0,0,0,0,0,0,0,0,-1.0558,-1.0559,-1.0565,-1.0565,-1.0565,-1.057,-1.0571,-1.0579,-1.0568,-1.0567,-1.0567,-1.0567,-1.0574,-1.0575,-1.0577,-1.0588,-1.0588,-1.0578,-1.0579,-1.0579,-1.0579,0,0,0,0,0,0,0,-1.0558,-1.0559,-1.057,-1.0566,-1.0565,-1.0565,-1.0565,-1.0573,-1.0572,-1.0567,-1.0567,-1.0568,-1.0574,-1.0576,-1.0577,-1.0588,-1.0578,-1.0579,-1.0579,-1.058,-1.0612,-1.0612,0,0,0,0,0,0,-1.0557,-1.0558,-1.057,-1.057,-1.0561,-1.0565,-1.0566,-1.0569,-1.0572,-1.0573,-1.0568,-1.0567,-1.0575,-1.0576,-1.0577,-1.0591,-1.0579,-1.058,-1.058,-1.0611,-1.0612,-1.0612,0,0,0,0,0,0,-1.0557,-1.0558,-1.0569,-1.0564,-1.0566,-1.0566,-1.0569,-1.0569,-1.0571,-1.0573,-1.0573,-1.057,-1.0575,-1.0576,-1.0585,-1.0591,-1.058,-1.058,-1.0611,-1.0611,-1.0612,-1.062,0,0,0,0,0,0,-1.0556,-1.0558,-1.0562,-1.0564,-1.0566,-1.0577,-1.057,-1.0569,-1.0572,-1.0572,-1.0575,-1.0575,-1.0575,-1.0584,-1.0586,-1.0592,-1.0581,-1.061,-1.0611,-1.0612,-1.0619,-1.062,-1.0622,0,0,0,0,0,-1.0556,-1.0563,-1.0562,-1.0563,-1.057,-1.0577,-1.0578,-1.0577,-1.0573,-1.0577,-1.0578,-1.0575,-1.0591,-1.0585,-1.0587,-1.0594,-1.061,-1.0611,-1.0612,-1.0618,-1.062,-1.0622,0,0,0,0,0,0,-1.0561,-1.0564,-1.0562,-1.057,-1.0574,-1.0576,-1.0581,-1.0579,-1.0584,-1.0583,-1.0582,-1.0583,-1.0593,-1.0594,-1.0588,-1.0606,-1.06,-1.0601,-1.0604,-1.0606,-1.0607,-1.0606,-1.0582,0,0,0,0,0,-1.0563,-1.0568,-1.057,-1.0578,-1.0579,-1.058,-1.0583,-1.0582,-1.0586,-1.0587,-1.0589,-1.0593,-1.0599,-1.0603,-1.0608,-1.062,-1.0621,-1.0625,-1.0627,-1.0628,-1.0629,-1.0636,-1.0639,-1.0616,-1.0616,-1.0616,0,0,-1.0568,-1.057,-1.0573,-1.0579,-1.0581,-1.0587,-1.0581,-1.0587,-1.0592,-1.0588,-1.0597,-1.0599,-1.0603,-1.0614,-1.0619,-1.0616,-1.0636,-1.0629,-1.063,-1.0631,-1.0638,-1.064,-1.0642,-1.0616,-1.0616,-1.0616,0,0,-1.0578,-1.058,-1.0587,-1.059,-1.0594,-1.0595,-1.0597,-1.06,-1.0601,-1.061,-1.0608,-1.0614,-1.0624,-1.0628,-1.0631,-1.0646,-1.0644,-1.0648,-1.0656,-1.0663,-1.0665,-1.0666,-1.0672,-1.0674,-1.0649,-1.0649,-1.0649,0,-1.0583,-1.0591,-1.0591,-1.0597,-1.0601,-1.0598,-1.0606,-1.0609,-1.0615,-1.0617,-1.0614,-1.0628,-1.0631,-1.0643,-1.0647,-1.0649,-1.0652,-1.0647,-1.0665,-1.0666,-1.0668,-1.0673,-1.0675,-1.065,-1.065,-1.065,-1.065,0,-1.0597,-1.0603,-1.0608,-1.0614,-1.0618,-1.0625,-1.0627,-1.0631,-1.0631,-1.0633,-1.0643,-1.0647,-1.0653,-1.0657,-1.0656,-1.0669,-1.0667,-1.0665,-1.0658,-1.067,-1.0675,-1.0677,-1.0651,-1.065,-1.065,-1.065,0,0,-1.0609,-1.0616,-1.0618,-1.0621,-1.0627,-1.0632,-1.064,-1.0646,-1.065,-1.0656,-1.0662,-1.0672,-1.067,-1.0674,-1.0675,-1.0681,-1.0694,-1.0677,-1.0678,-1.068,-1.0709,-1.0711,-1.0713,-1.0693,-1.0693,-1.0693,-1.0709,0,-1.062,-1.0633,-1.0634,-1.0646,-1.0652,-1.0651,-1.0658,-1.0663,-1.0665,-1.0672,-1.0675,-1.0682,-1.0678,-1.0681,-1.0687,-1.0691,-1.0699,-1.069,-1.07,-1.07,-1.0697,-1.0716,-1.0717,-1.0731,-1.0711,-1.0711,-1.0711,0,-1.0634,-1.0639,-1.0652,-1.0658,-1.0661,-1.0667,-1.0674,-1.068,-1.0686,-1.0688,-1.0693,-1.0693,-1.0703,-1.0697,-1.0711,-1.0704,-1.0709,-1.0712,-1.0712,-1.0712,-1.0705,-1.0716,-1.0735,-1.0737,-1.0714,-1.0714,-1.0714,0,-1.0641,-1.0652,-1.0661,-1.0664,-1.0671,-1.0676,-1.0679,-1.0685,-1.069,-1.0697,-1.07,-1.0708,-1.0712,-1.0719,-1.0722,-1.0718,-1.0736,-1.073,-1.0738,-1.0738,-1.074,-1.074,-1.076,-1.0745,-1.0745,-1.0745,-1.0745,0,-1.0653,-1.0661,-1.0665,-1.067,-1.068,-1.0682,-1.0691,-1.0694,-1.07,-1.0707,-1.0708,-1.0714,-1.0718,-1.0726,-1.0729,-1.074,-1.0742,-1.0744,-1.0744,-1.0743,-1.0743,-1.0745,-1.0744,-1.0745,-1.0745,-1.0745,-1.0745,0,-1.0662,-1.0665,-1.0675,-1.0682,-1.0684,-1.069,-1.0696,-1.0702,-1.0706,-1.0715,-1.0717,-1.0723,-1.0732,-1.0736,-1.0747,-1.0749,-1.0762,-1.0762,-1.076,-1.076,-1.0767,-1.0766,-1.0789,-1.0792,-1.0775,-1.0775,-1.0775,0,-1.0669,-1.0675,-1.0682,-1.0687,-1.069,-1.0698,-1.0703,-1.0706,-1.0711,-1.072,-1.0725,-1.0735,-1.0742,-1.0758,-1.0763,-1.0773,-1.0773,-1.078,-1.0774,-1.0773,-1.0772,-1.0772,-1.0773,-1.0781,-1.0781,-1.0781,-1.0781,0,-1.068,-1.0682,-1.0689,-1.0697,-1.0703,-1.0709,-1.0715,-1.0719,-1.0724,-1.073,-1.074,-1.0746,-1.0758,-1.0768,-1.0778,-1.0783,-1.0783,-1.0783,-1.0785,-1.0784,-1.0782,-1.0783,-1.0762,-1.0782,-1.0782,-1.0782,-1.0782,-1.0782,-1.0688,-1.0694,-1.07,-1.0708,-1.0714,-1.072,-1.0726,-1.0731,-1.0739,-1.0749,-1.0751,-1.0761,-1.0769,-1.0783,-1.0788,-1.0797,-1.0795,-1.0798,-1.0799,-1.08,-1.08,-1.0782,-1.0799,-1.0799,-1.0799,-1.0799,-1.0799,0,-1.07,-1.0704,-1.0712,-1.0721,-1.0728,-1.0728,-1.0735,-1.0741,-1.075,-1.0757,-1.0765,-1.0777,-1.0787,-1.0794,-1.0805,-1.0811,-1.0811,-1.0813,-1.0812,-1.0814,-1.0801,-1.0798,-1.0813,-1.0813,-1.0813,-1.0813,-1.0813,-1.0813,-1.0706,-1.0716,-1.0719,-1.0732,-1.0737,-1.0747,-1.0751,-1.0758,-1.0764,-1.0777,-1.0785,-1.0789,-1.0797,-1.0809,-1.0818,-1.082,-1.0824,-1.0826,-1.0828,-1.0816,-1.0814,-1.0813,-1.081,-1.0827,-1.0827,-1.084,-1.084,-1.084]},{"header":{"parameterUnit":"m.s-1","parameterCategory":1,"la1":30.2991,"la2":30.254,"lo1":-89.0895,"lo2":-89.0444,"dy":0.0017,"dx":0.0017,"nx":28,"ny":28,"refTime":"2024-04-14T03:00:00:Z","depth":0,"parameterNumber":3,"parameterNumberName":"V-component_of_WINDS"},"data":[0,0,0,0,0,0,0,0,0,0,0,0,0,0,0,0,0,0,0,0,0,0,0,0,0,0,0,0,0,0,0,0,0,0,0,0,0,0,0,0,0,0,0,0,0,0,0,0,0,0,0,0,0,0,0,0,0,0,2.2606,2.2606,0,2.2557,2.2557,2.2556,2.2503,2.2502,2.2501,2.2501,2.2448,2.2448,2.2447,0,0,0,0,0,0,0,0,0,0,0,0,0,2.2654,2.2653,2.2607,2.2606,2.2605,2.2557,2.2557,2.2556,2.2503,2.2502,2.2501,2.25,2.2449,2.2448,2.2447,0,0,0,0,0,0,0,0,0,0,0,0,0,2.2622,2.2653,2.2607,2.2573,2.257,2.2557,2.2557,2.2556,2.2503,2.2502,2.2501,2.25,2.2449,2.2448,2.2447,2.2463,0,0,2.2444,2.2443,0,0,0,0,0,0,0,0,2.2624,2.262,2.2579,2.2575,2.2572,2.2535,2.2554,2.2525,2.2503,2.2528,2.2501,2.2499,2.2478,2.2474,2.2468,2.246,2.2458,2.2443,2.2443,2.2442,2.2442,0,0,0,0,0,0,0,2.2626,2.2622,2.2587,2.2578,2.2574,2.256,2.2554,2.2548,2.251,2.2526,2.2522,2.2517,2.2476,2.2469,2.2466,2.2457,2.2443,2.2443,2.2442,2.2442,2.2462,2.2464,0,0,0,0,0,0,2.2633,2.2624,2.2588,2.2585,2.2595,2.256,2.2554,2.2548,2.251,2.2503,2.2518,2.2515,2.2471,2.2467,2.2464,2.2482,2.2442,2.2441,2.2441,2.2461,2.2463,2.2464,0,0,0,0,0,0,2.2635,2.2631,2.259,2.2604,2.2598,2.2561,2.2554,2.2547,2.254,2.2504,2.2497,2.2518,2.247,2.2465,2.2464,2.2479,2.2441,2.244,2.246,2.2462,2.2463,2.2517,0,0,0,0,0,0,2.2636,2.2631,2.2637,2.2604,2.2597,2.2592,2.2555,2.2547,2.2539,2.2534,2.2502,2.2496,2.2469,2.2466,2.2463,2.2477,2.2439,2.2458,2.2461,2.2463,2.2513,2.252,2.2526,0,0,0,0,0,2.2638,2.2654,2.2638,2.2634,2.2604,2.2593,2.2589,2.2558,2.254,2.2546,2.2523,2.2497,2.2478,2.2466,2.2462,2.2476,2.2457,2.246,2.2463,2.2511,2.2519,2.2525,0,0,0,0,0,0,2.2689,2.2649,2.2631,2.2636,2.2619,2.2584,2.259,2.2567,2.2554,2.255,2.2512,2.2505,2.2508,2.2492,2.248,2.2491,2.2464,2.2466,2.2502,2.2509,2.2515,2.2519,2.2438,0,0,0,0,0,2.2701,2.2696,2.266,2.2669,2.2661,2.2627,2.2621,2.2599,2.2579,2.2571,2.2548,2.2529,2.2518,2.2512,2.2501,2.251,2.2503,2.2518,2.2524,2.2529,2.2532,2.2537,2.2544,2.2473,2.2473,2.2473,0,0,2.2725,2.2703,2.2701,2.2678,2.2662,2.2658,2.2621,2.2618,2.2614,2.257,2.2568,2.255,2.2527,2.2531,2.2532,2.2518,2.255,2.2533,2.2537,2.2537,2.2541,2.2547,2.2554,2.2475,2.2474,2.2474,0,0,2.2768,2.275,2.2755,2.274,2.2716,2.2694,2.2695,2.2664,2.2651,2.2648,2.2616,2.2611,2.2594,2.2579,2.2569,2.2607,2.2583,2.2604,2.2636,2.2642,2.2648,2.2652,2.2667,2.2673,2.2606,2.2606,2.2607,0,2.2801,2.2793,2.2761,2.276,2.2751,2.2712,2.2718,2.2704,2.2677,2.2672,2.2656,2.2635,2.2616,2.2618,2.2627,2.262,2.2621,2.2608,2.2649,2.2654,2.2658,2.2672,2.2677,2.2609,2.2609,2.2609,2.2608,0,2.2836,2.2831,2.2839,2.2815,2.2807,2.2809,2.2777,2.2772,2.2751,2.2731,2.2729,2.2705,2.2689,2.2687,2.2666,2.2686,2.2678,2.2657,2.2629,2.2668,2.2681,2.2686,2.2613,2.2612,2.2612,2.2611,0,0,2.291,2.2869,2.2872,2.2862,2.2833,2.2828,2.2829,2.2814,2.2811,2.2794,2.2794,2.2781,2.2762,2.275,2.2727,2.2732,2.2766,2.2709,2.2708,2.2722,2.2788,2.2806,2.2812,2.2749,2.275,2.275,2.279,0,2.2948,2.2948,2.2919,2.2926,2.2922,2.2886,2.2886,2.2869,2.2849,2.2843,2.2821,2.2814,2.2787,2.278,2.2783,2.2761,2.2778,2.2757,2.2749,2.2749,2.2758,2.2818,2.2837,2.2876,2.2795,2.2795,2.2796,0,2.2993,2.298,2.2988,2.296,2.2957,2.2958,2.2943,2.2937,2.2916,2.2902,2.289,2.2864,2.2863,2.2837,2.2835,2.2822,2.2816,2.2805,2.2806,2.2805,2.2776,2.2821,2.2887,2.2894,2.2803,2.2802,2.2802,0,2.3048,2.3032,2.3035,2.3027,2.2994,2.2996,2.2982,2.296,2.2954,2.294,2.2935,2.2921,2.2914,2.2903,2.2875,2.2858,2.2877,2.2847,2.2866,2.2867,2.2872,2.2873,2.2941,2.2867,2.2867,2.2866,2.2866,0,2.3095,2.3102,2.3059,2.3062,2.3068,2.3034,2.3041,2.3024,2.3005,2.3003,2.297,2.2969,2.293,2.2924,2.2901,2.2905,2.2901,2.289,2.2884,2.2894,2.2896,2.2891,2.2888,2.2868,2.2868,2.2867,2.2867,0,2.3158,2.313,2.3131,2.31,2.3092,2.3099,2.3072,2.3072,2.3051,2.3049,2.3047,2.3014,2.3006,2.2976,2.296,2.2945,2.2956,2.2943,2.2963,2.296,2.2981,2.298,2.3049,2.3057,2.2977,2.2978,2.2978,0,2.3191,2.3195,2.3165,2.3162,2.315,2.3144,2.3138,2.3104,2.3099,2.3076,2.308,2.3069,2.3059,2.3048,2.3023,2.3011,2.2999,2.3024,2.2997,2.3007,2.3001,2.3002,2.3003,2.303,2.3031,2.3032,2.3033,0,2.3252,2.3238,2.323,2.3218,2.3211,2.3199,2.3185,2.3184,2.3148,2.3143,2.3135,2.3127,2.3112,2.3102,2.3086,2.3072,2.3047,2.3042,2.3046,2.3057,2.3069,2.3064,2.2981,2.304,2.304,2.3039,2.3039,2.3038,2.3302,2.3305,2.3285,2.3277,2.3263,2.3252,2.3251,2.323,2.3223,2.3209,2.3189,2.3184,2.3164,2.314,2.3128,2.3124,2.3109,2.3115,2.3116,2.3119,2.3124,2.3068,2.312,2.312,2.312,2.3119,2.3119,0,2.3364,2.3349,2.3342,2.3325,2.3319,2.3296,2.3279,2.3276,2.3272,2.3256,2.3247,2.3239,2.3229,2.3203,2.3192,2.3193,2.3182,2.3191,2.3192,2.3189,2.3137,2.3135,2.3201,2.3201,2.3201,2.3201,2.3201,2.3201,2.3395,2.3399,2.3383,2.338,2.3365,2.336,2.3353,2.3343,2.3329,2.3322,2.3314,2.3297,2.3277,2.3264,2.3255,2.3247,2.3246,2.326,2.3249,2.32,2.3193,2.3185,2.3184,2.3259,2.3259,2.3302,2.3302,2.3303]}]]